Location: Linton
(40.4333°S, 175.5500°E)
Time: 23:24:02
(UTC+00:00)

Daily predictions for brighter satellites

Satellite Brightness Start Highest point End
(mag) Time Altitude Azimuth Time Altitude Azimuth Time Altitude Azimuth
Lacrosse 5 4.1 14:21:39 17° S 14:24:00 22° SSE 14:28:02 10° ESE
Cosmos 1943 Rocket 3.9 14:28:02 25° SSW 14:28:02 25° SSW 14:30:52 10° S
Cosmos 2369 Rocket 2.9 14:46:05 47° S 14:46:05 47° S 14:50:08 10° SSE
SL-16 R/B 3.3 14:44:35 10° SSE 14:50:32 45° E 14:52:04 38° NE
Cosmos 1867 4.1 14:53:15 56° ESE 14:53:15 56° ESE 14:57:38 10° SE
Cosmos 2173 Rocket 4.3 14:53:25 10° S 14:59:47 64° E 15:02:05 40° NE
ALOS 4.2 15:03:17 21° SSW 15:03:17 21° SSW 15:04:53 10° SSW
SL-4 R/B 4.2 15:06:42 21° S 15:06:42 21° S 15:08:49 10° SE
CZ-2C R/B 3.6 15:12:13 18° ENE 15:12:13 18° ENE 15:13:29 10° ENE
ATLAS 2AS CENTAUR R/B 2.5 15:13:16 67° WSW 15:13:37 68° SW 15:20:16 10° SSE
Cosmos 1408 Rocket 4.5 15:16:44 43° S 15:16:44 43° S 15:19:48 10° S
ARIANE 5 R/B 2.5 15:15:14 75° ENE 15:15:30 78° ESE 15:20:41 10° S
Meteor 1-19 Rocket 4.3 15:10:14 10° S 15:16:09 79° E 15:17:42 50° NNE
ISS -0.8 15:19:51 13° S 15:19:51 13° S 15:21:11 10° SSE
ERS-1 4.5 15:20:32 64° NNE 15:21:19 82° ESE 15:26:28 10° SSW
Cosmos 1656 Rocket 4.5 15:26:54 36° SW 15:26:54 36° SW 15:31:21 10° S
SeaSat 1 4.3 15:28:08 10° S 15:30:46 17° SW 15:30:46 17° SW
RESURS DK-1 4.3 15:34:00 20° SSW 15:34:00 20° SSW 15:35:57 10° S
Envisat 3.5 15:28:09 10° NNE 15:33:11 61° ESE 15:38:16 10° S
UNK 3.6 15:29:43 10° S 15:34:19 80° WSW 15:34:19 80° WSW
CZ-2C R/B 4.2 15:41:19 17° SW 15:41:19 17° SW 15:42:34 10° SSW
Cosmos 2100 Rocket 4.0 15:34:40 10° SSW 15:40:51 58° W 15:42:19 46° NW
Cosmos 2016 Rocket 3.9 15:36:52 10° S 15:43:11 89° E 15:49:31 10° N
ATLAS 3B R/B 3.1 15:40:38 10° SSW 15:47:08 59° SE 15:53:24 10° NE
Cosmos 1833 4.1 15:43:15 10° SSW 15:48:47 59° WNW 15:54:18 10° N
Hubble Space Telescope 3.0 15:51:17 14° NNE 15:51:17 14° NNE 15:52:45 10° NE
Helios 1A 4.0 15:46:36 10° SSE 15:50:42 45° E 15:53:42 17° NNE
Cosmos 1484 Rocket 3.1 15:53:40 49° SW 15:53:40 49° SW 15:56:40 10° SSW
YAOGAN 6 2.5 15:56:19 65° SW 15:56:19 65° SW 15:59:25 10° SSW
Cosmos 1805 Rocket 3.4 15:56:10 54° NNW 15:57:04 73° W 16:01:30 10° S
Cosmos 2251 Rocket 4.4 15:53:43 12° N 15:58:21 49° ENE 16:03:30 10° SSE
Cosmos 2061 Rocket 3.9 15:54:54 10° S 16:01:21 80° W 16:07:38 10° N
Cosmos 614 Rocket 3.9 16:00:43 38° NW 16:02:39 68° WSW 16:07:56 10° SSE
YAOGAN 11 4.1 16:00:32 10° S 16:04:56 65° WSW 16:06:27 39° NW
Meteor 1-18 Rocket 4.3 16:00:06 10° SSW 16:06:04 67° W 16:11:53 10° N
Lacrosse 5 1.8 16:02:26 10° SW 16:07:38 88° SE 16:12:45 10° NE
Cosmos 1459 Rocket 4.5 16:02:30 10° SSW 16:08:10 38° W 16:10:26 29° NW
Meteor 1-29 2.9 16:13:59 53° WNW 16:14:07 53° W 16:17:26 10° SSW
PSLV R/B 3.5 16:10:08 10° NNE 16:14:21 83° ESE 16:18:37 10° S
Cosmos 2228 Rocket 3.1 16:11:39 10° SSW 16:16:18 73° W 16:20:52 10° N
Cosmos 1666 Rocket 3.8 16:13:11 10° N 16:17:38 72° E 16:22:05 10° SSE
Cosmos 1743 Rocket 4.4 16:19:04 30° W 16:19:26 30° WSW 16:23:20 10° SSW
Sich 1 3.3 16:18:59 31° NW 16:20:39 47° W 16:24:56 10° S
NOAA 11 4.1 16:15:17 10° NNE 16:20:44 87° WNW 16:26:16 10° SSW
CZ-4B R/B 3.8 16:15:38 10° NNE 16:20:46 70° ESE 16:25:49 10° S
CZ-2D R/B 4.3 16:21:09 30° W 16:21:10 30° W 16:25:05 10° SW
Cosmos 2233 Rocket 3.9 16:18:27 10° S 16:24:46 73° W 16:31:03 10° N
H-2A R/B 2.7 16:21:33 10° N 16:25:18 62° W 16:29:09 10° SSW
Cosmos 2369 Rocket 4.2 16:27:52 11° WSW 16:29:32 12° SW 16:31:43 10° SSW
Cosmos 1066 Rocket 4.5 16:24:24 10° S 16:30:21 79° E 16:36:14 10° NNE
Meteor 2-4 Rocket 4.1 16:25:26 10° SSW 16:31:09 47° W 16:36:49 10° NNW
CZ-4C R/B 1.8 16:26:42 10° SW 16:32:03 88° ESE 16:36:28 10° NNE
SL-27 R/B 2.3 16:28:44 10° SSW 16:32:10 64° WNW 16:35:36 10° N
SL-16 R/B 3.4 16:28:35 10° S 16:33:52 30° WSW 16:37:09 19° WNW
Cosmos 2098 Rocket 3.9 16:30:12 10° N 16:35:35 89° E 16:42:16 10° S
NOSS 3-1 (C) 4.3 16:29:30 10° SSW 16:35:42 49° SE 16:40:49 10° ENE
Cosmos 1447 Rocket 4.4 16:30:28 10° NNW 16:36:37 71° W 16:42:50 10° S
Cosmos 1725 Rocket 4.5 16:31:04 10° SSW 16:36:47 38° W 16:42:29 10° NNW
Meteor 1-4 Rocket 3.4 16:35:24 10° N 16:38:57 53° E 16:42:31 10° SSE
Cosmos 1707 Rocket 3.5 16:35:38 10° SSW 16:40:09 69° W 16:44:34 10° N
CZ-2C R/B 3.1 16:38:38 10° N 16:42:32 48° W 16:46:29 10° SSW
SL-4 R/B 4.3 16:43:36 10° SW 16:46:03 16° S 16:48:26 10° SE
CZ-2C R/B 2.3 16:45:54 18° WNW 16:48:15 32° NNW 16:51:56 10° NE
Cosmos 1470 Rocket 3.8 16:44:44 10° N 16:49:12 77° E 16:53:47 10° S
Cosmos 1697 Rocket 4.1 16:47:44 10° N 16:53:00 40° ENE 16:58:19 10° SE
ARIANE 5 R/B 4.3 16:55:33 12° W 16:55:33 12° W 16:56:56 10° WSW
CZ-2C R/B 3.8 16:51:44 10° NNW 16:55:59 28° W 17:00:09 10° SW
ISS -1.1 16:55:00 10° SSW 16:57:20 17° SSE 16:59:41 10° ESE
Cosmos 1656 3.6 16:53:20 10° NNW 16:58:53 80° WSW 17:04:26 10° SSE
Cosmos 1536 2.9 16:56:15 10° NNW 17:00:14 59° W 17:04:15 10° S
Landsat 4 3.6 16:58:19 10° N 17:02:05 81° WNW 17:05:55 10° SSW
Cosmos 1140 Rocket 3.6 17:00:14 10° NNW 17:05:25 58° WSW 17:10:39 10° SSE
ATLAS 2AS CENTAUR R/B 4.3 17:01:31 10° WSW 17:05:50 18° SSW 17:10:18 10° SSE
Meteor 1-13 Rocket 4.3 17:00:42 10° SSW 17:06:39 70° W 17:12:25 10° N
NOAA 12 4.3 17:02:22 10° NNE 17:07:43 81° ESE 17:13:08 10° S
Meteor 2-13 Rocket 4.5 17:03:46 10° N 17:09:57 81° W 17:16:11 10° S
Cosmos 405 Rocket 2.7 17:12:09 10° SSW 17:15:50 54° W 17:19:31 10° N
H-2A R/B 2.5 17:11:33 10° NNE 17:16:43 70° ESE 17:21:49 10° S
Cosmos 2084 3.9 17:14:45 10° NNW 17:19:33 82° ENE 17:24:29 10° SE
Meteor 1-23 Rocket 4.3 17:16:29 10° S 17:22:14 89° W 17:27:59 10° N
FengYun 1-2 T 4.3 17:16:46 10° N 17:22:28 80° WNW 17:28:11 10° SSW
